SCP
0 0 0 0 0 0 0 0 0 0 0 0 0 0 0 0 0 0 0 0 0 0 0 0 0 0 0 0 0 0 0 0
-0 0 0 0 0 0 0 0 0 0 0 0 0 0 0 0 0 0 0 0 0 0 0 0 0 0 0 0 0 0 0 0
-0 0 0 0 0 0 0 0 0 0 0 0 0 0 0 0 0 0 0 0 0 0 0 0 0 0 0 0 0 0 0 0
-0 0 0 0 0 0 0 0 0 0 0 0 0 0 0 0 0 0 0 0 0 0 0 0 0 0 0 0 0 0 0 0
0 0 0 0 0 0 0 0 0 0 0 0 0 0 0 0 0 0 0 0 0 0 0 0 0 0 0 0 0 0 0 0
0 0 0 0 0 0 0 0 0 0 0 0 0 0 0 0 0 0 0 0 0 0 0 0 0 0 0 0 0 0 0 0
0 0 0 0 0 0 0 0 0 0 0 0 0 0 0 0 0 0 0 0 0 0 0 0 0 0 0 0 0 0 0 0
0 0 0 0 0 0 0 0 0 0 0 0 0 0 0 0 0 0 0 0 0 0 0 0 0 0 0 0 0 0 0 0
0 0 0 0 0 0 0 0 0 0 0 0 0 0 0 0 0 0 0 0 0 0 0 0 0 0 0 0 0 0 0 0
0 0 0 0 0 0 0 0 0 0 0 0 0 0 0 0 0 0 0 0 0 0 0 0 0 0 0 0 0 0 0 0
0 0 0 0 0 0 0 0 0 0 0 0 0 0 0 0 0 0 0 0 0 0 0 0 0 0 0 0 0 0 0 0
0 0 0 0 0 0 0 0 0 0 0 0 0 0 0 0 0 0 0 0 0 0 0 0 0 0 0 0 0 0 0 0
0 0 0 0 0 0 0 0 0 0 0 0 0 0 0 0 0 0 0 0 0 0 0 0 0 0 0 0 0 0 0 0
0 0 0 0 0 0 0 0 0 0 0 0 0 0 0 0 0 0 0 0 0 0 0 0 0 0 0 0 0 0 0 0
0 0 0 0 0 0 0 0 0 0 0 0 0 0 0 0 0 0 0 0 0 0 0 0 0 0 0 0 0 0 0 0
0 0 0 0 0 0 0 0 0 0 0 0 0 0 0 0 0 0 0 0 0 0 0 0 0 0 0 0 0 0 0 0
0 0 0 0 0 0 0 0 0 0 0 0 0 0 0 0 0 0 0 0 0 0 0 0 0 0 0 0 0 0 0 0
0 0 0 0 0 0 0 0 0 0 0 0 0 0 0 0 0 0 0 0 0 0 0 0 0 0 0 0 0 0 0 0
0 0 0 0 0 0 0 0 0 0 0 0 0 0 0 0 0 0 0 0 0 0 0 0 0 0 0 0 0 0 0 0
0 0 0 0 0 0 0 0 0 0 0 0 0 0 0 0 0 0 0 0 0 0 0 0 0 0 0 0 0 0 0 0
Wind_Speed_500mb
24 27 30 35 43 58 82 88 84 83 80 78 78 76 77 75 72 70 69 76 82 81 73 66 58 50 42 37 32 26 20 16
17 24 29 33 41 52 74 87 86 83 81 80 83 77 78 76 74 73 75 81 87 83 76 69 61 54 46 39 33 29 24 19
10 19 29 34 38 49 67 83 85 82 81 82 84 79 79 80 77 77 81 85 89 84 77 69 61 54 48 42 37 32 27 22
22 27 28 33 40 48 62 76 82 84 83 85 87 85 85 83 80 81 84 90 91 86 78 69 62 55 49 42 37 33 30 25
36 40 38 39 44 51 61 74 81 84 86 89 92 89 86 83 82 84 87 92 92 85 77 70 62 56 50 46 41 37 33 31
50 46 50 51 51 56 63 71 81 86 89 92 92 90 86 85 84 86 90 94 91 85 78 71 64 57 52 48 43 36 41 39
62 58 58 62 63 62 65 73 79 86 90 91 92 93 92 90 88 87 92 95 94 87 80 73 66 58 54 48 42 43 52 47
79 78 72 67 68 71 70 73 79 84 88 92 95 97 95 90 88 89 93 96 95 89 81 73 65 58 53 52 49 47 59 53
83 74 72 67 69 70 68 68 75 83 87 91 96 97 95 91 88 88 92 95 92 86 79 71 62 57 54 59 63 54 64 60
51 49 47 47 48 55 60 62 67 77 84 87 91 95 92 87 85 86 90 91 87 81 74 67 59 61 61 72 59 60 67 65
23 32 35 35 38 41 45 51 57 64 71 77 83 85 83 81 80 82 83 81 77 70 66 63 58 60 68 68 65 65 69 66
37 32 29 27 25 26 29 35 39 47 51 57 64 69 70 70 73 74 72 65 64 67 61 54 58 65 72 60 68 66 70 70
10 10 7 5 5 7 8 12 18 24 29 36 47 57 60 58 55 59 66 65 56 58 51 54 63 75 61 61 63 68 72 72
15 18 24 27 24 17 13 11 11 11 15 22 31 40 51 59 61 57 60 60 62 55 58 64 74 69 58 60 64 68 73 73
33 30 31 31 30 26 24 23 19 16 13 14 22 33 45 52 58 61 64 61 60 61 59 62 55 56 58 60 63 66 68 68
20 22 24 28 26 22 17 15 17 17 16 16 17 20 24 30 35 39 39 39 40 40 45 51 52 47 49 54 58 58 59 60
15 15 20 18 18 19 19 19 14 13 14 15 18 22 27 30 35 37 37 40 42 43 45 45 47 49 51 53 55 56 53 54
32 30 29 27 25 25 22 20 18 15 11 10 11 14 18 23 28 31 36 40 41 43 44 46 48 50 52 52 52 53 48 45
31 28 24 21 16 17 15 13 10 8 7 8 10 13 17 21 26 31 34 33 35 38 45 47 48 44 44 44 42 35 35 37
23 21 18 13 9 6 5 3 4 7 11 14 18 21 24 26 28 30 34 37 39 40 40 38 39 43 40 35 34 37 40 42
Wind_Direction_500mb
278 281 272 259 246 234 227 228 228 226 224 221 217 221 224 224 224 224 219 210 204 200 198 200 200 202 204 205 204 205 205 209
263 275 272 257 244 234 227 227 228 229 226 222 218 222 224 225 225 224 220 212 207 204 203 204 204 205 207 206 208 206 207 206
284 281 271 265 252 238 228 228 230 231 229 226 222 222 224 225 224 224 220 213 209 207 206 206 207 209 209 211 210 211 210 214
311 291 274 265 255 242 232 230 232 232 230 227 225 223 224 226 226 226 220 214 210 209 209 209 211 211 212 213 215 214 218 226
301 285 278 265 257 248 240 233 233 232 232 230 229 226 226 228 228 226 219 215 212 211 212 213 212 213 215 215 215 219 226 234
290 279 278 272 260 251 245 240 237 234 234 233 230 228 228 228 227 223 219 215 214 214 214 214 214 216 218 220 222 229 243 238
276 276 275 278 270 259 251 247 241 237 236 235 231 228 227 227 225 222 219 215 215 215 217 216 215 217 220 222 226 245 243 242
280 281 278 275 272 269 257 249 246 242 238 235 232 229 228 228 226 223 219 216 215 216 217 217 219 220 221 227 237 243 243 245
287 284 283 279 273 269 260 252 247 243 239 235 232 230 229 227 225 224 220 217 217 218 218 219 219 223 230 229 254 243 244 248
290 286 282 274 273 268 261 255 249 244 240 236 232 229 227 227 225 222 219 218 219 221 220 218 227 228 234 238 251 245 246 250
293 294 283 277 272 266 260 254 250 247 243 238 233 230 227 225 225 223 221 222 221 220 221 227 230 232 240 247 253 252 250 254
292 285 279 272 270 267 263 257 254 249 246 241 234 230 227 225 223 223 220 220 221 220 231 225 231 236 243 253 254 253 257 258
283 271 277 304 305 272 248 246 247 247 244 236 227 223 223 222 225 225 223 218 227 229 228 230 231 241 251 253 249 255 257 262
90 99 101 94 85 85 96 103 123 159 192 208 214 216 218 219 219 218 219 229 238 231 235 231 237 250 254 247 249 253 261 264
104 101 100 100 101 98 96 95 96 111 142 176 203 214 221 225 226 228 230 228 227 233 237 247 249 249 246 249 251 255 258 262
120 115 124 127 128 133 139 152 160 162 168 178 183 188 200 209 218 221 225 234 243 249 250 252 254 254 253 251 253 257 260 261
135 135 130 130 127 128 134 138 151 171 182 196 209 213 217 222 226 230 232 234 238 241 243 245 248 250 253 255 259 262 264 266
124 122 120 118 119 120 123 126 128 130 141 161 189 207 220 225 229 232 229 232 237 239 245 248 252 256 259 263 267 273 275 270
126 128 126 124 131 130 133 137 146 164 180 201 216 227 232 235 236 236 238 241 242 247 252 255 257 262 267 274 276 269 268 267
141 143 136 133 130 118 134 180 231 257 261 260 259 257 255 250 247 245 245 247 249 252 259 261 266 270 272 268 267 271 274 274
Wind_Speed_850mb
24 27 30 35 43 58 82 88 84 83 80 78 78 76 77 75 72 70 69 76 82 81 73 66 58 50 42 37 32 26 20 16
17 24 29 33 41 52 74 87 86 83 81 80 83 77 78 76 74 73 75 81 87 83 76 69 61 54 46 39 33 29 24 19
10 19 29 34 38 49 67 83 85 82 81 82 84 79 79 80 77 77 81 85 89 84 77 69 61 54 48 42 37 32 27 22
22 27 28 33 40 48 62 76 82 84 83 85 87 85 85 83 80 81 84 90 91 86 78 69 62 55 49 42 37 33 30 25
36 40 38 39 44 51 61 74 81 84 86 89 92 89 86 83 82 84 87 92 92 85 77 70 62 56 50 46 41 37 33 31
50 46 50 51 51 56 63 71 81 86 89 92 92 90 86 85 84 86 90 94 91 85 78 71 64 57 52 48 43 36 41 39
62 58 58 62 63 62 65 73 79 86 90 91 92 93 92 90 88 87 92 95 94 87 80 73 66 58 54 48 42 43 52 47
79 78 72 67 68 71 70 73 79 84 88 92 95 97 95 90 88 89 93 96 95 89 81 73 65 58 53 52 49 47 59 53
83 74 72 67 69 70 68 68 75 83 87 91 96 97 95 91 88 88 92 95 92 86 79 71 62 57 54 59 63 54 64 60
51 49 47 47 48 55 60 62 67 77 84 87 91 95 92 87 85 86 90 91 87 81 74 67 59 61 61 72 59 60 67 65
23 32 35 35 38 41 45 51 57 64 71 77 83 85 83 81 80 82 83 81 77 70 66 63 58 60 68 68 65 65 69 66
37 32 29 27 25 26 29 35 39 47 51 57 64 69 70 70 73 74 72 65 64 67 61 54 58 65 72 60 68 66 70 70
10 10 7 5 5 7 8 12 18 24 29 36 47 57 60 58 55 59 66 65 56 58 51 54 63 75 61 61 63 68 72 72
15 18 24 27 24 17 13 11 11 11 15 22 31 40 51 59 61 57 60 60 62 55 58 64 74 69 58 60 64 68 73 73
33 30 31 31 30 26 24 23 19 16 13 14 22 33 45 52 58 61 64 61 60 61 59 62 55 56 58 60 63 66 68 68
20 22 24 28 26 22 17 15 17 17 16 16 17 20 24 30 35 39 39 39 40 40 45 51 52 47 49 54 58 58 59 60
15 15 20 18 18 19 19 19 14 13 14 15 18 22 27 30 35 37 37 40 42 43 45 45 47 49 51 53 55 56 53 54
32 30 29 27 25 25 22 20 18 15 11 10 11 14 18 23 28 31 36 40 41 43 44 46 48 50 52 52 52 53 48 45
31 28 24 21 16 17 15 13 10 8 7 8 10 13 17 21 26 31 34 33 35 38 45 47 48 44 44 44 42 35 35 37
23 21 18 13 9 6 5 3 4 7 11 14 18 21 24 26 28 30 34 37 39 40 40 38 39 43 40 35 34 37 40 42
Wind_Direction_850mb
278 281 272 259 246 234 227 228 228 226 224 221 217 221 224 224 224 224 219 210 204 200 198 200 200 202 204 205 204 205 205 209
263 275 272 257 244 234 227 227 228 229 226 222 218 222 224 225 225 224 220 212 207 204 203 204 204 205 207 206 208 206 207 206
284 281 271 265 252 238 228 228 230 231 229 226 222 222 224 225 224 224 220 213 209 207 206 206 207 209 209 211 210 211 210 214
311 291 274 265 255 242 232 230 232 232 230 227 225 223 224 226 226 226 220 214 210 209 209 209 211 211 212 213 215 214 218 226
301 285 278 265 257 248 240 233 233 232 232 230 229 226 226 228 228 226 219 215 212 211 212 213 212 213 215 215 215 219 226 234
290 279 278 272 260 251 245 240 237 234 234 233 230 228 228 228 227 223 219 215 214 214 214 214 214 216 218 220 222 229 243 238
276 276 275 278 270 259 251 247 241 237 236 235 231 228 227 227 225 222 219 215 215 215 217 216 215 217 220 222 226 245 243 242
280 281 278 275 272 269 257 249 246 242 238 235 232 229 228 228 226 223 219 216 215 216 217 217 219 220 221 227 237 243 243 245
287 284 283 279 273 269 260 252 247 243 239 235 232 230 229 227 225 224 220 217 217 218 218 219 219 223 230 229 254 243 244 248
290 286 282 274 273 268 261 255 249 244 240 236 232 229 227 227 225 222 219 218 219 221 220 218 227 228 234 238 251 245 246 250
293 294 283 277 272 266 260 254 250 247 243 238 233 230 227 225 225 223 221 222 221 220 221 227 230 232 240 247 253 252 250 254
292 285 279 272 270 267 263 257 254 249 246 241 234 230 227 225 223 223 220 220 221 220 231 225 231 236 243 253 254 253 257 258
283 271 277 304 305 272 248 246 247 247 244 236 227 223 223 222 225 225 223 218 227 229 228 230 231 241 251 253 249 255 257 262
90 99 101 94 85 85 96 103 123 159 192 208 214 216 218 219 219 218 219 229 238 231 235 231 237 250 254 247 249 253 261 264
104 101 100 100 101 98 96 95 96 111 142 176 203 214 221 225 226 228 230 228 227 233 237 247 249 249 246 249 251 255 258 262
120 115 124 127 128 133 139 152 160 162 168 178 183 188 200 209 218 221 225 234 243 249 250 252 254 254 253 251 253 257 260 261
135 135 130 130 127 128 134 138 151 171 182 196 209 213 217 222 226 230 232 234 238 241 243 245 248 250 253 255 259 262 264 266
124 122 120 118 119 120 123 126 128 130 141 161 189 207 220 225 229 232 229 232 237 239 245 248 252 256 259 263 267 273 275 270
126 128 126 124 131 130 133 137 146 164 180 201 216 227 232 235 236 236 238 241 242 247 252 255 257 262 267 274 276 269 268 267
141 143 136 133 130 118 134 180 231 257 261 260 259 257 255 250 247 245 245 247 249 252 259 261 266 270 272 268 267 271 274 274